Home > Weather > Reykjavik > Past weeks

Flag for Iceland Past Weather in Reykjavik, Iceland — Yesterday and Last 2 Weeks

Now
50 °F

Low clouds.


Feels Like: 48 °F
Forecast: 51 / 53 °F
Wind: 5 mph from West

Location: Reykjavik Airport

Current Time: Jun 25, 2016 at 8:59:41 AM

Latest Report: Jun 25, 2016 at 8:00 AM


Visibility: N/A

Pressure: 29.77 "Hg

Humidity: 94%

Dew Point: 48 °F

Location of ReykjavikLocation

Past Weather in Reykjavik — Graph

°F

Reykjavik Temperature Yesterday

Maximum temperature yesterday: 52 °F (at 11:00 AM)
Minimum temperature yesterday: 46 °F (at 1:00 AM)
Average temperature yesterday: 50 °F

High & Low Weather Summary for the Past Weeks

 TemperatureHumidityPressure
High63 °F (Jun 20, 4:00 PM)94% (Jun 17, 3:00 AM)30.04 "Hg (Jun 17, 3:00 AM)
Low45 °F (Jun 15, 3:00 AM)48% (Jun 20, 6:00 PM)29.06 "Hg (Jun 20, 6:00 PM)
Average51 °F75%29.78 "Hg
* Reported Jun 10 7:00 AM — Jun 25 7:00 AM, Reykjavik, Weather by CustomWeather, © 2016

Note: Actual official high and low records may vary slightly from our data, if they occured in-between our weather recording intervals... More about our weather records

Advertising

Reykjavik Weather History for the Previous 24 Hours

Scroll right to see more
 ConditionsComfort  
Time TempWeatherWind HumidityBarometerVisibility
7:00 AM
Sat, Jun 25
50 °FOvercast.5 mph94%29.77 "HgN/A
6:00 AM50 °FDrizzle. Overcast.5 mph88%29.77 "Hg4 mi
5:00 AM50 °FDrizzle. Overcast.6 mph88%29.77 "Hg1 mi
4:00 AM50 °FOvercast.7 mph88%29.77 "HgN/A
3:00 AM52 °FDrizzle. Mostly cloudy.3 mph82%29.77 "HgN/A
2:00 AM52 °FMostly cloudy.8 mph82%29.77 "HgN/A
1:00 AM52 °FMostly cloudy.12 mph82%29.77 "HgN/A
12:00 AM52 °FCloudy.13 mph82%29.77 "HgN/A
11:00 PM
Fri, Jun 24
52 °FDrizzle. Cloudy.12 mph82%29.77 "HgN/A
10:00 PM52 °FBroken clouds.13 mph82%29.80 "HgN/A
9:00 PM52 °FLight rain. Mostly cloudy.10 mph82%29.80 "HgN/A
8:00 PM52 °FLight rain. Mostly cloudy.6 mph82%29.83 "HgN/A
7:00 PM52 °FDrizzle. Overcast.12 mph82%29.83 "HgN/A
6:00 PM52 °FLight rain. Mostly cloudy.13 mph82%29.86 "HgN/A
5:00 PM52 °FMore clouds than sun.13 mph77%29.86 "HgN/A
4:00 PM52 °FMore clouds than sun.14 mph77%29.89 "HgN/A
3:00 PM52 °FDrizzle. Overcast.12 mph72%29.89 "HgN/A
2:00 PM52 °FScattered showers. Overcast.13 mph72%29.92 "HgN/A
1:00 PM50 °FMore clouds than sun.15 mph76%29.92 "HgN/A
12:00 PM50 °FDrizzle. Mostly cloudy.14 mph76%29.95 "HgN/A
11:00 AM52 °FMostly cloudy.8 mph72%29.95 "HgN/A
10:00 AM50 °FMostly cloudy.8 mph76%29.95 "HgN/A
9:00 AM50 °FMostly cloudy.9 mph76%29.95 "HgN/A
8:00 AM50 °FOvercast.6 mph76%29.95 "HgN/A
Weather by CustomWeather, © 2016

See weather overviewHow to use our weather pages